Flag for Germany Weather past 2 weeks in Leverkusen, North Rhine-Westphalia, Germany

Now
70 °F

Sunny.


Feels Like: 70 °F
Forecast: 63 / 83 °F
Wind: 7 mph from Southeast

Location: Koeln / Bonn

Current Time: Aug 1, 2014 at 9:56:41 AM

Latest Report: Aug 1, 2014 at 9:20 AM


Visibility: 10 mi

Pressure: 29.89 "Hg

Humidity: 64%

Dew point: 57 °F

Location of LeverkusenLocation

Historic Weather in Leverkusen — Graph

°F

Leverkusen temperature yesterday

Maximum temperature yesterday: 79 °F (at 4:50 PM)
Minimum temperature yesterday: 55 °F (at 6:50 AM)
Average temperature yesterday: 67 °F

Past Weeks' High & Low Weather Summary

 TemperatureHumidityPressure
High91 °F (Jul 19, 2:50 PM)100% (Jul 21, 7:20 AM)30.18 "Hg (Jul 21, 7:20 AM)
Low54 °F (Jul 25, 4:20 AM)26% (Jul 19, 2:50 PM)29.77 "Hg (Jul 20, 2:20 AM)
Average71 °F73%29.93 "Hg
* Reported Jul 17 8:20 AM — Aug 1 8:20 AM, Leverkusen, Weather by CustomWeather, © 2014

Note: Actual official high and low records may vary slightly from our data, if they occured in-between our weather recording intervals... More about our weather records

Advertising

Leverkusen weather history for previous 24 hours

 ConditionsComfort  
Time TempWeatherWind HumidityBarometerVisibility
8:20 AM
Aug 1
66 °FSunny.3 mph73%29.89 "Hg10 mi
7:50 AM63 °FSunny.2 mph83%29.89 "Hg10 mi
7:20 AM59 °FSunny.2 mph88%29.89 "Hg10 mi
6:50 AM59 °FClear.2 mph88%29.89 "Hg10 mi
6:20 AM57 °FClear.2 mph88%29.89 "Hg10 mi
5:50 AM57 °FClear.1 mph88%29.89 "Hg10 mi
5:20 AM59 °FClear.5 mph82%29.89 "Hg10 mi
4:50 AM61 °FClear.5 mph77%29.89 "Hg10 mi
4:20 AM61 °FClear.2 mph77%29.89 "Hg10 mi
3:50 AM61 °FClear.3 mph77%29.89 "Hg10 mi
3:20 AM61 °FClear.3 mph77%29.92 "Hg10 mi
2:50 AM63 °FClear.3 mph73%29.92 "Hg10 mi
2:20 AM61 °FClear.5 mph77%29.92 "Hg10 mi
1:50 AM63 °FClear.5 mph73%29.92 "Hg10 mi
1:20 AM63 °FClear.2 mph73%29.92 "Hg10 mi
12:50 AM59 °FClear.3 mph82%29.92 "Hg10 mi
12:20 AM63 °FClear.3 mph77%29.92 "Hg10 mi
11:50 PM
Jul 31
61 °FClear.3 mph77%29.92 "Hg10 mi
11:20 PM66 °FClear.3 mph68%29.92 "Hg10 mi
10:50 PM66 °FClear.1 mph68%29.92 "Hg10 mi
10:20 PM66 °FClear.6 mph68%29.92 "Hg10 mi
9:50 PM68 °FSunny.6 mph64%29.92 "Hg10 mi
9:20 PM68 °FSunny.6 mph64%29.92 "Hg10 mi
8:50 PM72 °FSunny.5 mph57%29.92 "Hg10 mi
8:20 PM75 °FSunny.5 mph50%29.92 "Hg10 mi
7:50 PM77 °FSunny.5 mph44%29.92 "Hg10 mi
7:20 PM77 °FSunny.5 mph44%29.92 "Hg10 mi
6:50 PM77 °FSunny.2 mph47%29.92 "Hg10 mi
6:20 PM77 °FSunny.5 mph44%29.92 "Hg10 mi
5:50 PM77 °FSunny.5 mph44%29.95 "Hg10 mi
5:20 PM77 °FSunny.5 mph39%29.95 "Hg10 mi
4:50 PM79 °FPassing clouds.5 mph42%29.95 "HgN/A
4:20 PM77 °FPassing clouds.5 mph42%29.95 "HgN/A
3:50 PM77 °FSunny.3 mph44%29.95 "Hg10 mi
3:20 PM77 °FPassing clouds.3 mph44%29.98 "HgN/A
2:50 PM75 °FPassing clouds.3 mph47%29.98 "HgN/A
2:20 PM73 °FPassing clouds.3 mph53%29.98 "HgN/A
1:50 PM73 °FPassing clouds.5 mph50%29.98 "HgN/A
1:20 PM72 °FPassing clouds.5 mph53%30.01 "HgN/A
12:50 PM72 °FPassing clouds.3 mph57%30.01 "HgN/A
12:20 PM72 °FPassing clouds.5 mph65%30.01 "HgN/A
11:50 AM68 °FPassing clouds.2 mph64%30.01 "HgN/A
11:20 AM68 °FScattered clouds.5 mph64%30.01 "HgN/A
10:50 AM66 °FScattered clouds.3 mph73%30.04 "HgN/A
10:20 AM64 °FScattered clouds.3 mph78%30.04 "HgN/A
9:50 AM64 °FScattered clouds.2 mph78%30.04 "HgN/A
9:20 AM63 °FScattered clouds.3 mph83%30.04 "HgN/A
Weather by CustomWeather, © 2014

See weather overviewHow to use our weather pages